Date String (YYYY-MM-DD hh:mm:ss) UTC,Instrument flags,absolute air pressure of the measurement (hPa),sample flow rate (lpm),inlet stack bypass flow (lpm),air temperature of the measurement (°C),ambient temperature measured by the external sensor (°C),aerosol sample conditioner tube jacket temperature (°C),OPC LED temperature (°C),internal box temperature (°C),relative humidity of the measurement (%),span deviation,mass concentration of particles derived from Lorenz-Mie calculation of OPC scattering (μg/m³),mass concentration of particles derived from Lorenz-Mie calculation of OPC scattering (μg/m³),mass concentration of particles derived from Lorenz-Mie calculation of OPC scattering (μg/m³)
DateTimeUTC,F1_M11,P_M11,Q1_M11,Q2_M11,T1_M11,T2_M11,T3_M11,T4_M11,T5_M11,U1_M11,ZSPAN_M11,X2_M11,X0_M11,X1_M11
2023-07-18 09:00:00,SystemResetWarning,0830.7,5.00,000.00,029.3,026.2,000.0,037.6,030.8,15.1,0000.0,0005.08,0015.92,0004.23
2023-07-18 09:01:00,SystemResetWarning,0830.7,5.01,000.00,029.3,025.5,000.0,037.5,030.7,14.9,0000.0,0005.18,0015.42,0004.24
2023-07-18 09:02:00,SystemResetWarning,0830.7,5.01,000.00,029.2,025.7,000.0,037.5,030.5,15.0,0000.0,0005.27,0015.26,0004.26
2023-07-18 09:03:00,SystemResetWarning,0830.7,5.00,000.00,029.1,026.0,000.0,037.6,030.5,15.1,0000.0,0005.32,0015.72,0004.28
2023-07-18 09:04:00,SystemResetWarning,0830.8,4.99,000.00,029.1,026.4,000.0,037.6,030.6,15.0,0000.0,0005.36,0015.49,0004.30
2023-07-18 09:05:00,SystemResetWarning,0830.7,5.00,000.00,029.1,026.7,000.0,037.6,030.7,15.0,0000.0,0005.47,0016.04,0004.32
2023-07-18 09:06:00,SystemResetWarning,0830.8,5.00,000.00,029.2,027.1,000.0,037.6,030.7,15.1,0000.0,0005.52,0016.54,0004.33
2023-07-18 09:07:00,SystemResetWarning,0830.8,5.00,000.00,029.2,027.3,000.0,037.6,030.8,15.1,0000.0,0005.50,0017.08,0004.35
2023-07-18 09:08:00,SystemResetWarning,0830.8,5.01,000.00,029.2,027.5,000.0,037.6,030.8,15.2,0000.0,0005.50,0016.50,0004.35
2023-07-18 09:09:00,SystemResetWarning,0830.8,4.99,000.00,029.2,027.7,000.0,037.7,030.9,15.2,0000.0,0005.49,0015.22,0004.35
2023-07-18 09:10:00,SystemResetWarning,0830.8,5.00,000.00,029.3,027.9,000.0,037.7,030.9,15.4,0000.0,0005.50,0014.86,0004.35
2023-07-18 09:11:00,SystemResetWarning,0830.8,5.00,000.00,029.3,028.0,000.0,037.7,031.0,15.5,0000.0,0005.50,0014.79,0004.34
2023-07-18 09:12:00,SystemResetWarning,0830.8,5.00,000.00,029.3,028.1,000.0,037.7,031.0,15.4,0000.0,0005.34,0014.39,0004.30
2023-07-18 09:13:00,SystemResetWarning,0830.8,5.01,000.00,029.4,028.2,000.0,037.8,031.1,15.5,0000.0,0005.22,0014.51,0004.26
2023-07-18 09:14:00,SystemResetWarning,0830.8,5.00,000.00,029.4,028.3,000.0,037.8,031.1,15.4,0000.0,0005.16,0014.14,0004.22
2023-07-18 09:15:00,SystemResetWarning,0830.9,4.99,000.00,029.4,027.2,000.0,037.7,031.0,15.0,0000.0,0005.10,0013.89,0004.17
2023-07-18 09:16:00,SystemResetWarning,0830.8,5.00,000.00,029.4,025.7,000.0,037.6,030.8,15.2,0000.0,0004.99,0013.40,0004.12
2023-07-18 09:17:00,SystemResetWarning,0830.8,5.02,000.00,029.3,025.6,000.0,037.5,030.7,15.2,0000.0,0004.90,0012.58,0004.06
2023-07-18 09:18:00,SystemResetWarning,0830.8,4.98,000.00,029.2,025.9,000.0,037.6,030.6,15.4,0000.0,0004.82,0011.73,0004.01
2023-07-18 09:19:00,SystemResetWarning,0830.8,4.99,000.00,029.2,026.2,000.0,037.6,030.6,15.7,0000.0,0004.72,0010.90,0003.96
2023-07-18 09:20:00,SystemResetWarning,0830.8,5.00,000.00,029.2,026.6,000.0,037.6,030.7,15.7,0000.0,0004.61,0010.67,0003.91
2023-07-18 09:21:00,SystemResetWarning,0830.8,5.01,000.00,029.2,026.9,000.0,037.7,030.7,15.6,0000.0,0004.52,0010.68,0003.86
2023-07-18 09:22:00,SystemResetWarning,0830.8,5.01,000.00,029.2,027.2,000.0,037.7,030.8,15.5,0000.0,0004.43,0010.41,0003.82
2023-07-18 09:23:00,SystemResetWarning,0830.8,5.00,000.00,029.2,027.5,000.0,037.7,030.8,15.2,0000.0,0004.39,0010.22,0003.79
2023-07-18 09:24:00,SystemResetWarning,0830.8,4.99,000.00,029.3,027.7,000.0,037.7,030.9,15.2,0000.0,0004.37,0009.56,0003.77
2023-07-18 09:25:00,SystemResetWarning,0830.8,5.00,000.00,029.3,027.9,000.0,037.7,030.9,15.3,0000.0,0004.31,0009.65,0003.74
2023-07-18 09:26:00,SystemResetWarning,0830.8,5.00,000.00,029.3,028.0,000.0,037.7,031.0,15.1,0000.0,0004.26,0009.95,0003.73
2023-07-18 09:27:00,SystemResetWarning,0830.8,5.00,000.00,029.4,028.1,000.0,037.8,031.0,15.1,0000.0,0004.21,0010.08,0003.72
2023-07-18 09:28:00,SystemResetWarning,0830.8,5.00,000.00,029.4,028.2,000.0,037.8,031.1,15.2,0000.0,0004.21,0010.17,0003.71
2023-07-18 09:29:00,SystemResetWarning,0830.8,5.00,000.00,029.4,028.3,000.0,037.8,031.1,15.1,0000.0,0004.23,0010.99,0003.70
2023-07-18 09:30:00,SystemResetWarning,0830.7,4.98,000.00,029.4,027.0,000.0,037.7,031.0,14.8,0000.0,0004.22,0010.97,0003.69
2023-07-18 09:31:00,SystemResetWarning,0830.7,5.01,000.00,029.4,025.6,000.0,037.6,030.7,14.9,0000.0,0004.24,0011.06,0003.70
2023-07-18 09:32:00,SystemResetWarning,0830.7,5.01,000.00,029.3,025.6,000.0,037.6,030.6,15.1,0000.0,0004.24,0010.57,0003.71
2023-07-18 09:33:00,SystemResetWarning,0830.7,5.00,000.00,029.2,025.9,000.0,037.6,030.5,15.0,0000.0,0004.29,0010.92,0003.71
2023-07-18 09:34:00,SystemResetWarning,0830.7,5.01,000.00,029.2,026.2,000.0,037.6,030.6,14.9,0000.0,0004.34,0011.56,0003.73
2023-07-18 09:35:00,SystemResetWarning,0830.7,5.00,000.00,029.2,026.6,000.0,037.7,030.6,15.0,0000.0,0004.34,0011.92,0003.74
2023-07-18 09:36:00,SystemResetWarning,0830.8,5.00,000.00,029.2,026.9,000.0,037.7,030.7,14.9,0000.0,0004.35,0012.02,0003.75
2023-07-18 09:37:00,SystemResetWarning,0830.8,5.00,000.00,029.2,027.2,000.0,037.7,030.8,14.9,0000.0,0004.35,0011.68,0003.76
2023-07-18 09:38:00,SystemResetWarning,0830.8,5.00,000.00,029.2,027.5,000.0,037.7,030.8,15.0,0000.0,0004.38,0011.76,0003.77
2023-07-18 09:39:00,SystemResetWarning,0830.8,5.01,000.00,029.3,027.7,000.0,037.7,030.9,14.8,0000.0,0004.35,0011.55,0003.77
2023-07-18 09:40:00,SystemResetWarning,0830.8,5.00,000.00,029.3,027.8,000.0,037.7,030.9,14.7,0000.0,0004.30,0009.91,0003.77
2023-07-18 09:41:00,SystemResetWarning,0830.8,5.00,000.00,029.3,028.0,000.0,037.7,031.0,14.6,0000.0,0004.34,0010.07,0003.77
2023-07-18 09:42:00,SystemResetWarning,0830.8,5.00,000.00,029.4,028.1,000.0,037.8,031.0,14.5,0000.0,0004.33,0010.16,0003.77
2023-07-18 09:43:00,SystemResetWarning,0830.9,5.00,000.00,029.4,028.2,000.0,037.8,031.1,14.6,0000.0,0004.34,0010.17,0003.77
2023-07-18 09:44:00,SystemResetWarning,0830.9,4.98,000.00,029.4,027.7,000.0,037.7,031.0,14.9,0000.0,0004.34,0010.20,0003.78
2023-07-18 09:45:00,SystemResetWarning,0830.8,5.00,000.00,029.4,026.0,000.0,037.6,030.8,14.7,0000.0,0004.30,0009.69,0003.77
2023-07-18 09:46:00,SystemResetWarning,0830.8,5.01,000.00,029.3,025.5,000.0,037.6,030.6,14.8,0000.0,0004.28,0009.23,0003.77
2023-07-18 09:47:00,SystemResetWarning,0830.9,5.00,000.00,029.2,025.7,000.0,037.6,030.5,14.7,0000.0,0004.26,0008.53,0003.77
2023-07-18 09:48:00,SystemResetWarning,0830.9,4.99,000.00,029.2,026.1,000.0,037.6,030.5,14.8,0000.0,0004.24,0008.40,0003.77
2023-07-18 09:49:00,SystemResetWarning,0830.9,5.00,000.00,029.1,026.4,000.0,037.6,030.6,14.8,0000.0,0004.22,0008.24,0003.76
2023-07-18 09:50:00,SystemResetWarning,0831.0,5.01,000.00,029.2,026.8,000.0,037.7,030.7,15.2,0000.0,0004.24,0008.84,0003.76
2023-07-18 09:51:00,SystemResetWarning,0831.0,5.01,000.00,029.2,027.1,000.0,037.7,030.7,15.6,0000.0,0004.25,0009.00,0003.77
2023-07-18 09:52:00,SystemResetWarning,0830.9,4.99,000.00,029.2,027.4,000.0,037.7,030.8,15.3,0000.0,0004.25,0008.84,0003.77
2023-07-18 09:53:00,SystemResetWarning,0830.9,5.00,000.00,029.2,027.6,000.0,037.7,030.8,16.0,0000.0,0004.23,0008.90,0003.78
2023-07-18 09:54:00,SystemResetWarning,0831.0,4.99,000.00,029.3,027.7,000.0,037.7,030.9,15.9,0000.0,0004.20,0009.31,0003.77
2023-07-18 09:55:00,SystemResetWarning,0831.0,5.00,000.00,029.3,027.9,000.0,037.7,030.9,15.5,0000.0,0004.20,0009.53,0003.77
2023-07-18 09:56:00,SystemResetWarning,0831.0,5.00,000.00,029.3,028.0,000.0,037.7,031.0,15.3,0000.0,0004.22,0009.59,0003.77
2023-07-18 09:57:00,SystemResetWarning,0831.0,5.00,000.00,029.4,028.1,000.0,037.8,031.0,15.0,0000.0,0004.25,0009.75,0003.78
2023-07-18 09:58:00,SystemResetWarning,0831.0,5.00,000.00,029.4,028.2,000.0,037.8,031.1,15.3,0000.0,0004.29,0009.98,0003.78
2023-07-18 09:59:00,SystemResetWarning,0831.0,4.99,000.00,029.4,028.2,000.0,037.8,031.1,14.9,0000.0,0004.32,0010.89,0003.78
